User: anonymous   Login
Location: Ferchesar
(52.6477°N, 12.4298°E)
Time: 20:50:57
(UTC+01:00)
Language:

S-56A Canister/Altair - Orbit

View from above orbital plane
View from above orbital plane
View from above satellite
View from above satellite

Ground track
Ground track

The orbit data is extracted from the following two-line orbital elements,

1 00082U 61004B   21059.47085975 -.00000062  00000-0 -25356-4 0  9998
2 00082  38.8652 330.3848 1176404 239.2459 108.7212 12.26044446839239
Epoch (UTC): 28 February 2021 11:18:02
Eccentricity: 0.1176404
inclination: 38.8652°
perigee height: 632 km
apogee height: 2501 km
right ascension of ascending node: 330.3848°
argument of perigee: 239.2459°
revolutions per day: 12.26044446
mean anomaly at epoch: 108.7212°
orbit number at epoch: 83923

The dashed part of the orbit path shows where the satellite is in the earth's shadow,  

DLR